Flag for Benin Weather past 2 weeks in Porto Novo, Benin

Now
84 °F

Scattered clouds.


Feels Like: 94 °F
Forecast: 75 / 90 °F
Wind: 7 mph from West

Location: Cotonou Airport

Current Time: Jan 28, 2015 at 11:06:05 AM

Latest Report: Jan 28, 2015 at 10:00 AM


Visibility: 5 mi

Pressure: 29.86 "Hg

Humidity: 79%

Dew point: 77 °F

Location of Porto NovoLocation

Historic Weather in Porto Novo — Graph

°F

Porto Novo temperature yesterday

Maximum temperature yesterday: 90 °F (at 12:00 PM)
Minimum temperature yesterday: 81 °F (at 12:00 AM)
Average temperature yesterday: 83 °F

Past Weeks' High & Low Weather Summary

 TemperatureHumidityPressure
High90 °F (Jan 15, 2:00 PM)100% (Jan 14, 2:00 AM)29.95 "Hg (Jan 14, 2:00 AM)
Low66 °F (Jan 14, 3:00 AM)23% (Jan 13, 2:00 PM)29.74 "Hg (Jan 20, 4:00 PM)
Average81 °F86%29.84 "Hg
* Reported Jan 13 9:00 AM — Jan 28 9:00 AM, Porto Novo, Weather by CustomWeather, © 2014

Note: Actual official high and low records may vary slightly from our data, if they occured in-between our weather recording intervals... More about our weather records

Advertising

Porto Novo weather history for previous 24 hours

 ConditionsComfort  
Time TempWeatherWind HumidityBarometerVisibility
9:00 AM
Jan 28
82 °FScattered clouds.5 mph89%29.83 "Hg5 mi
8:00 AM81 °FScattered clouds.9 mph89%29.83 "Hg5 mi
7:00 AM81 °FPassing clouds.9 mph94%29.80 "Hg5 mi
6:00 AM81 °FPassing clouds.9 mph94%29.80 "Hg5 mi
5:00 AM81 °FWarm.9 mph94%29.80 "HgN/A
4:00 AM81 °FPassing clouds.12 mph94%29.80 "Hg5 mi
3:00 AM82 °FPassing clouds.13 mph89%29.83 "Hg5 mi
2:00 AM82 °FPassing clouds.12 mph89%29.83 "Hg5 mi
1:00 AM81 °FPassing clouds.13 mph94%29.86 "Hg5 mi
12:00 AM82 °FPassing clouds.15 mph89%29.86 "Hg5 mi
11:00 PM
Jan 27
82 °FPassing clouds.15 mph89%29.86 "Hg5 mi
10:00 PM82 °FPassing clouds.14 mph89%29.86 "Hg5 mi
9:00 PM82 °FPassing clouds.15 mph89%29.83 "Hg5 mi
8:00 PM82 °FPassing clouds.10 mph89%29.80 "Hg5 mi
7:00 PM82 °FPassing clouds.14 mph89%29.80 "Hg5 mi
6:00 PM84 °FScattered clouds.14 mph84%29.77 "Hg5 mi
5:00 PM84 °FScattered clouds.12 mph84%29.77 "Hg5 mi
4:00 PM86 °FScattered clouds.15 mph79%29.77 "Hg5 mi
3:00 PM88 °FScattered clouds.15 mph75%29.77 "Hg5 mi
2:00 PM88 °FScattered clouds.14 mph75%29.80 "Hg5 mi
1:00 PM88 °FScattered clouds.13 mph75%29.83 "Hg5 mi
12:00 PM90 °FScattered clouds.10 mph71%29.86 "Hg5 mi
11:00 AM86 °FScattered clouds.9 mph75%29.89 "Hg5 mi
Weather by CustomWeather, © 2014

See weather overviewHow to use our weather pages